AO-07 1 07530U 74089B 26171.32384950 -.00000048 00000-0 -10319-4 0 9996 2 07530 101.9899 184.6033 0012609 124.3014 247.3322 12.53698149360912 UO-11 1 14781U 84021B 26171.17466261 .00001028 00000-0 11016-3 0 9999 2 14781 97.8059 136.7159 0007913 162.8520 197.2967 14.90789334257572 LO-19 1 20442U 90005G 26171.32155512 .00000068 00000-0 41169-4 0 9996 2 20442 98.8848 193.2136 0011289 191.6338 168.4586 14.34123955902844 AO-27 1 22825U 93061C 26171.14644842 .00000066 00000-0 42028-4 0 9990 2 22825 98.6879 238.5590 0009542 92.1826 268.0449 14.30942955707423 FO-29 1 24278U 96046B 26171.04668621 -.00000015 00000-0 17773-4 0 9994 2 24278 98.5237 19.5270 0350925 89.0333 275.0987 13.53274564473555 GO-32 1 25397U 98043D 26171.22532426 .00000030 00000-0 33011-4 0 9998 2 25397 99.0068 164.0607 0001214 156.9177 203.2056 14.24428866451764 ISS 1 25544U 98067A 26171.15661001 .00008669 00000-0 16345-3 0 9998 2 25544 51.6329 285.3962 0004555 207.7610 152.3136 15.49327998572210 NO-44 1 26931U 01043C 26171.30235592 .00000048 00000-0 48882-4 0 9991 2 26931 67.0502 236.2148 0006064 264.6638 95.3772 14.31957024290897 SO-50 1 27607U 02058C 26171.18974593 .00000729 00000-0 10356-3 0 9996 2 27607 64.5514 119.6951 0075161 261.9163 97.3411 14.83052340264905 CO-55 1 27844U 03031E 26170.56610412 .00000202 00000-0 10624-3 0 9993 2 27844 98.6736 179.0951 0009689 171.1603 188.9749 14.24336935192018 RS-22 1 27939U 03042A 26171.34705185 .00000124 00000-0 27353-4 0 9990 2 27939 98.3471 355.7944 0009926 258.2610 222.2118 14.73469403216010 CO-65 1 32785U 08021C 26171.23183503 .00004715 00000-0 29832-3 0 9992 2 32785 97.8278 152.7136 0009463 29.2800 330.8957 15.09475862985651 CO-66 1 32791U 08021J 26170.94270999 .00015827 00000-0 50132-3 0 9995 2 32791 97.7524 168.9721 0000692 347.0777 13.0446 15.32829868987716 RS-30 1 32953U 08025A 26171.23710631 .00000026 00000-0 11979-3 0 9995 2 32953 82.5041 353.5420 0018744 306.9538 52.9825 12.43179508820072 SRMSAT 1 37841U 11058D 26170.35988047 .00000354 00000-0 48474-4 0 9991 2 37841 19.9728 46.3158 0011744 227.6220 288.1945 14.11575972758128 ZACUBE-1 1 39417U 13066B 26170.94018519 .00002355 00000-0 18525-3 0 9992 2 39417 97.8072 133.2914 0041153 238.1921 121.5293 15.01201080681143 Delfi-N3xt 1 39428U 13066N 26171.25660083 .00004906 00000-0 42925-3 0 9993 2 39428 97.8333 91.5648 0073873 195.1168 164.7846 14.95103665675085 GOMX-1 1 39430U 13066Q 26171.25015190 .00001171 00000-0 18105-3 0 9993 2 39430 97.6478 11.5188 0130104 67.8557 293.6400 14.69468214670364 LO-74 1 39440U 13066AA 26171.27848929 .00004167 00000-0 38586-3 0 9993 2 39440 97.8909 120.2695 0058179 19.0950 341.2432 14.93785800677456 AO-73 1 39444U 13066AE 26171.17211760 .00004774 00000-0 29759-3 0 9999 2 39444 97.8278 142.6800 0035926 190.4382 169.6104 15.09518490680115 DTUSAT-2 1 40030U 14033W 26170.94581646 .00005960 00000-0 32260-3 0 9993 2 40030 98.0865 168.8476 0006937 214.2385 145.8399 15.15045561653102 LILACSAT-2 1 40908U 15049K 26171.23910490 .00014381 00000-0 24453-3 0 9993 2 40908 97.4641 208.1970 0005721 230.6823 129.3923 15.51528982596229 Horyu-4 1 41340U 16012D 26171.06167485 .00485262 92252-4 97744-3 0 9991 2 41340 30.9843 57.8799 0006450 290.1158 69.8811 15.98434090571275 Lapan A3 1 41603U 16040E 26171.25880612 .00002672 00000-0 85738-4 0 9996 2 41603 97.1492 167.3035 0010510 15.4475 344.7087 15.33120972555287 CAS-2T 1 41847U 16066G 26171.21882670 .00001296 00000-0 18865-3 0 9993 2 41847 98.3821 246.9206 0342870 120.3110 243.2471 14.44702954505236 TechnoSat 1 42829U 17042E 26171.17475808 .00002722 00000-0 19541-3 0 9992 2 42829 97.4297 328.7186 0019183 84.8967 275.4449 15.04978314487156 AO-91 1 43017U 17073E 26171.18457471 .00006691 00000-0 29340-3 0 9990 2 43017 97.4696 38.3374 0149318 318.7924 40.2110 15.12753215465843 S-Net D 1 43186U 18014G 26171.29880828 .00004087 00000-0 21192-3 0 9995 2 43186 97.5356 76.0698 0008631 20.4965 339.6613 15.16696846459235 S-Net B 1 43187U 18014H 26171.24434577 .00003738 00000-0 19427-3 0 9997 2 43187 97.5362 76.0022 0009113 15.6078 344.5434 15.16666684459223 S-Net A 1 43188U 18014J 26171.29766921 .00004140 00000-0 21459-3 0 9990 2 43188 97.5373 76.2647 0008975 16.0073 344.1441 15.16704943459232 S-Net C 1 43189U 18014K 26171.18226088 .00003712 00000-0 19299-3 0 9997 2 43189 97.5390 76.2251 0010138 7.9683 352.1709 15.16658370457767 Ten-Koh 1 43677U 18084G 26171.25281608 .00001332 00000-0 10395-3 0 9997 2 43677 98.0770 3.7460 0011527 105.3842 254.8657 15.02951920416629 PO-101 1 43678U 18084H 26171.30419036 .00001606 00000-0 13266-3 0 9996 2 43678 98.1188 7.6472 0012768 160.1805 199.9916 15.00462826416689 QO-100 1 43700U 18090A 26171.25448352 .00000139 00000-0 00000-0 0 9995 2 43700 0.0157 57.1433 0001818 67.4240 261.2931 1.00272434 27706 MinXSS-2 1 43758U 18099A 26171.19663308 .00030955 00000-0 61145-3 0 9999 2 43758 97.4527 247.5697 0006882 242.8812 117.1736 15.47070253414597 AO-95 1 43770U 18099N 26171.09258373 .00009291 00000-0 35555-3 0 9999 2 43770 97.4376 231.3282 0007669 346.8388 13.2649 15.26762464413666 SNUSat 2 1 43782U 18099AA 26171.09486323 .00006937 00000-0 30769-3 0 9996 2 43782 97.4055 224.4340 0008538 286.2337 73.7960 15.21873725413472 SnugLite 1 43784U 18099AC 26171.09213746 .00010074 00000-0 38008-3 0 9996 2 43784 97.3861 225.3436 0001218 264.3775 95.7325 15.27231554413760 ITASat 1 1 43786U 18099AE 26171.11764083 .00005183 00000-0 24987-3 0 9992 2 43786 97.4025 222.5709 0011788 349.8108 10.2885 15.19087166413356 EAGLET 1 1 43790U 18099AJ 26170.69834225 .00003186 00000-0 18414-3 0 9994 2 43790 97.4228 220.3006 0010408 345.2076 14.8849 15.12954488412716 ESEO 1 43792U 18099AL 26171.04068624 .00001401 00000-0 10483-3 0 9994 2 43792 97.3977 208.3067 0010976 330.4654 29.5951 15.04257349412236 JO-97 1 43803U 18099AX 26170.70553725 .00013869 00000-0 42740-3 0 9992 2 43803 97.4125 233.5484 0004492 250.8022 109.2735 15.33718827414017 Suomi 100 1 43804U 18099AY 26170.69405694 .00010066 00000-0 36556-3 0 9996 2 43804 97.4181 231.0783 0008434 267.8657 92.1617 15.28463082413806 ISAT 1 43879U 18111D 26171.29422064 .00091979 00000-0 90174-3 0 9998 2 43879 97.5873 106.7554 0001632 159.5589 200.5736 15.65792578411659 UWE-4 1 43880U 18111E 26170.73909040 .00028000 00000-0 56934-3 0 9993 2 43880 97.5852 99.2477 0005068 330.7950 29.3015 15.46259003411174 Sparrow 1 43881U 18111F 26170.79991037 .00145998 00000-0 96420-3 0 9997 2 43881 97.6106 111.8883 0004611 117.7107 242.4625 15.75150349411787 Prox-1 1 44339U 19036A 26171.00267406 .00011723 00000-0 11377-2 0 9999 2 44339 23.9947 95.4433 0005845 68.7086 291.4037 14.90666191373893 Taurus 1 1 44530U 19059C 26171.30141706 .00004623 00000-0 74279-3 0 9996 2 44530 98.6426 336.3221 0007234 304.9904 55.0622 14.72121476359101 TO-108 1 44881U 19093C 26171.27575440 .00000426 00000-0 54079-4 0 9999 2 44881 97.7525 243.4326 0015012 77.8966 282.3931 14.86521771351872 RS-44 1 44909U 19096E 26171.21062974 .00000023 00000-0 41148-4 0 9996 2 44909 82.5221 337.6954 0218283 137.1228 224.7127 12.79748886302733 SALSAT 1 46495U 20068K 26170.95810387 .00006379 00000-0 22355-3 0 9996 2 46495 97.8854 174.1914 0007893 296.5001 63.5428 15.29832652315783 CSS (TIANHE-1) 1 48274U 21035A 26170.72834613 .00019835 00000-0 23343-3 0 9990 2 48274 41.4696 306.5363 0007350 99.2772 260.8898 15.60907257293562 CUTE 1 49263U 21088D 26171.26453893 .00137923 93909-5 37887-3 0 9996 2 49263 97.4181 270.8579 0007619 223.6443 136.4231 15.93975753263040 TeikyoSat 4 1 49396U 21102B 26170.97106405 .00001459 00000-0 94715-4 0 9994 2 49396 97.3669 200.3463 0010353 285.6004 74.4082 15.09516085253148 Z-Sat 1 49399U 21102E 26171.29559328 .00003787 00000-0 18750-3 0 9999 2 49399 97.3320 206.5241 0015195 232.6893 127.2958 15.18283785253916 KOSEN 1 1 49402U 21102H 26171.15632538 .00005899 00000-0 22568-3 0 9992 2 49402 97.3183 213.2560 0013525 189.6798 170.4183 15.26868716254471 HO-113 1 50466U 21131B 26171.31731078 .00000335 00000-0 11703-3 0 9992 2 50466 98.4982 263.6901 0005389 89.9489 270.2317 14.41359647235569 SNUGLITE 2 1 52899U 22065F 26170.90091710 .00000699 00000-0 14146-3 0 9994 2 52899 98.2206 315.7265 0007834 25.1670 334.9913 14.64351761211390 UmKA 1 (RS40S) 1 57172U 23091G 26171.12051317 .00005134 00000-0 23516-3 0 9997 2 57172 97.5045 229.8066 0014331 108.5784 251.7009 15.20846269164459 CubeBel-2 (EU11S) 1 57175U 23091K 26171.25935382 .00011777 00000-0 41713-3 0 9996 2 57175 97.5045 234.5039 0011300 105.5597 254.6892 15.29216608164771 RS-38S 1 57189U 23091Z 26171.14421981 .00014444 00000-0 41234-3 0 9996 2 57189 97.5087 240.6890 0008086 68.9656 291.2452 15.36104713165142 SONATE-2 1 59112U 24043Q 26171.21961612 .00037043 00000-0 47732-3 0 9999 2 59112 97.5541 321.8019 0007210 185.3360 174.7820 15.58914873128361 GRBBeta 1 60237U 24128C 26171.27296576 .00002201 00000-0 15966-3 0 9991 2 60237 61.9881 205.4396 0040261 135.2866 225.1485 15.06653951106731 Curium One 1 60242U 24128H 26171.27727071 .00005095 00000-0 29828-3 0 9992 2 60242 61.9768 194.8300 0039477 131.3701 229.0801 15.12541915106928 ROBUSTA-3A 1 60243U 24128J 26171.11144918 .00004283 00000-0 25846-3 0 9993 2 60243 61.9846 197.9022 0041030 128.4989 231.9798 15.11700028106865 CatSat 1 60246U 24125J 26171.02851399 .00058542 00000-0 74280-3 0 9994 2 60246 97.2084 23.5660 0022422 169.4284 190.7449 15.58946359107836 HYPERVIEW-1G (RS66S) 1 61772U 24199AP 26171.11001400 .00125192 00000-0 78003-3 0 9993 2 61772 97.2851 50.9798 0004715 207.8229 152.2786 15.76549631135133 AO-123 1 61781U 24199AY 26171.29264810 .00006331 00000-0 18421-3 0 9999 2 61781 97.2995 39.9350 0012098 301.4843 58.5218 15.35713194134408 JINJUSat 1B 1 63210U 25052A 26170.69073646 .00013525 00000-0 41876-3 0 9998 2 63210 97.3998 67.4488 0005436 85.5087 274.6776 15.33568631 70486 NUSHSAT 1 1 63211U 25052B 26171.18640506 .00018481 00000-0 52750-3 0 9998 2 63211 97.3973 68.5214 0005173 87.7596 272.4240 15.36071329 70608 TEVEL2-4 1 63213U 25052D 26171.18155784 .00016297 00000-0 48630-3 0 9994 2 63213 97.3892 67.5778 0004925 97.4797 262.7005 15.34700095 70573 TEVEL2-5 1 63214U 25052E 26171.26760576 .00015978 00000-0 47945-3 0 9998 2 63214 97.3892 67.6107 0004895 98.9294 261.2503 15.34527610 70583 TEVEL2-6 1 63215U 25052F 26171.28000724 .00015976 00000-0 47994-3 0 9995 2 63215 97.3898 67.6078 0004759 99.4633 260.7149 15.34492782 70580 TEVEL2-1 1 63217U 25052H 26171.17964496 .00015594 00000-0 47659-3 0 9994 2 63217 97.3873 67.1285 0004873 107.5627 252.6148 15.33952529 70556 TEVEL2-3 1 63218U 25052J 26170.65232947 .00014905 00000-0 45510-3 0 9995 2 63218 97.3873 66.6229 0004839 109.1056 251.0711 15.33991826 70478 TEVEL2-2 1 63219U 25052K 26171.17994154 .00015656 00000-0 47833-3 0 9993 2 63219 97.3871 67.1308 0004871 108.3125 251.8648 15.33961605 70553 TEVEL2-9 1 63237U 25052AD 26171.22655169 .00013721 00000-0 44623-3 0 9994 2 63237 97.3933 66.5461 0008045 122.3024 237.8998 15.31975924 70498 TEVEL2-7 1 63238U 25052AE 26171.20271571 .00013367 00000-0 43885-3 0 9999 2 63238 97.3934 66.4373 0008076 122.8867 237.3153 15.31676701 70483 TEVEL2-8 1 63239U 25052AF 26170.68834909 .00012538 00000-0 41221-3 0 9992 2 63239 97.3937 65.9009 0008075 124.5955 235.6049 15.31647647 70407 SPIRONE 1 66657U 25274H 26171.26978063 .00001682 00000-0 16478-3 0 9994 2 66657 97.7480 100.5168 0012366 12.0219 348.1293 14.93554445 30682 K-HERO 1 66660U 25274L 26170.73769811 .00001628 00000-0 15799-3 0 9993 2 66660 97.7486 100.1552 0014392 16.7711 343.3982 14.93969599 30619 SNUGLITE-III DURI 1 66661U 25274M 26171.26120666 .00001117 00000-0 10992-3 0 9995 2 66661 97.7484 100.6923 0014995 15.7306 344.4377 14.94009164 30695 SAKHACUBE-CHOLBON 1 67290U 25313AU 26170.45696629 .00007736 00000-0 31324-3 0 9990 2 67290 97.3931 245.4637 0008608 357.2855 2.8334 15.24922033 26320 RS95S (QMR-KWT-2) 1 67291U 25313AV 26170.70536872 .00011199 00000-0 43324-3 0 9993 2 67291 97.3925 245.8896 0007987 353.2594 6.8536 15.26346044 26377 Ten-Koh2 1 68261U 25241B 26170.63890132 .00004629 00000-0 20254-3 0 9992 2 68261 51.6704 307.9615 0005867 149.0841 211.0484 15.23928004 15282 JACK-002 1 68417U 26067B 26170.86158908 .00005090 00000-0 24354-3 0 9993 2 68417 97.4570 129.4189 0000163 167.0681 193.0558 15.19420860 12351 DISCO 2 1 68431U 26067R 26171.14679733 .00006938 00000-0 33366-3 0 9990 2 68431 97.4604 129.6891 0002520 38.6061 321.5354 15.19111640 12390 HADES-SA (SpinnyONE) 1 68446U 26067AG 26170.85664013 .00014903 00000-0 71102-3 0 9999 2 68446 97.4408 129.1130 0009324 75.2223 285.0044 15.19135217 12335 PARUS-6U1 1 68456U 26067AS 26170.82598964 .00004979 00000-0 25130-3 0 9990 2 68456 97.4554 129.1488 0007325 64.9234 295.2760 15.17540003 12339 SAL-E 1 68458U 26067AU 26170.82100456 .00006688 00000-0 33398-3 0 9991 2 68458 97.4480 129.0783 0007856 72.4880 287.7212 15.17787802 12334 FSI-SAT 2 1 68792U 26088A 26171.14120013 .00003354 00000-0 22838-3 0 9996 2 68792 97.5080 320.3263 0016064 97.5542 262.7511 15.06857804 8737 OrigamiSat 2 1 68795U 26088D 26171.14664264 .00010245 00000-0 65323-3 0 9993 2 68795 97.5085 320.4763 0016213 72.0591 288.2404 15.08795348 8740 ARICA 2 1 68796U 26088E 26170.94754329 .00003443 00000-0 22441-3 0 9999 2 68796 97.5072 320.2698 0017018 71.7038 288.6041 15.08447920 8716 WASEDA-SAT-ZERO-II 1 68797U 26088F 26171.07551027 .00004976 00000-0 32056-3 0 9990 2 68797 97.5070 320.4046 0016842 71.2212 289.0843 15.08672057 8735 MANGARO-II-Piscus 1 68798U 26088G 26170.99937933 .00002781 00000-0 18001-3 0 9991 2 68798 97.5077 320.3599 0020516 73.5802 286.7680 15.08802837 8721 IO-86 1 40931U 25360.30710720 .00000000 00000-0 12800-3 0 00 2 40931 6.0006 332.5373 0012733 338.8432 8.1437 14.79075515 01 LILIUM-4 1 71922C 26067AC 26089.50133053 -.00014632 00000 0 -74472-3 0 04 2 71922 97.4497 49.1617 0004341 5.9603 355.7042 15.16896692 16